Tracking 32422 objects as of 7-Dec-2025
HD Live streaming from Space Station
objects crossing your sky now

STARLINK-5970

Track STARLINK-5970 now!
10-day predictions
STARLINK-5970 is classified as:


NORAD ID: 56450
Int'l Code: 2023-064C
Perigee: 577.0 km
Apogee: 581.3 km
Inclination: 70.0 °
Period: 96.1 minutes
Semi major axis: 6950 km
RCS: Unknown
Launch date: May 10, 2023
Source: United States (US)
Launch site: AIR FORCE WESTERN TEST RANGE (AFWTR)
Your satellite tracking list
Your tracking list is empty




NASA's NSSDC Master Catalog

Two Line Element Set (TLE):
1 56450U 23064C   25340.81797398  .00000214  00000-0  25721-4 0  9999
2 56450  69.9997  18.6668 0003102 270.3557  89.7246 14.98335809141339
Source of the keplerian elements: AFSPC